Terminal Aerodrome Forecast
Issued by NWS Charleston, WV

Current Version | Previous Version | Graphics & Text | Print | Product List | Glossary On
Versions: 1 2 3 4 5 6 7 8 9 10 11 12 13 14 15 16 17 18 19 20 21 22 23 24 25 26 27
000
FTUS41 KRLX 261134
TAFEKN
TAF
KEKN 261134Z 2612/2712 00000KT P6SM BKN050
     FM261700 VRB03KT P6SM SHRA VCTS OVC040CB
     FM261900 23004KT P6SM VCTS OVC040CB
     FM270500 VRB03KT P6SM BKN080
     FM270900 VRB03KT P6SM VCTS BKN060CB
     FM271100 22004KT P6SM SHRA VCTS BKN040CB=

USA.gov is the U.S. government's official web portal to all federal, state and local government web resources and services.